Time,TemperatureF,DewpointF,PressureIn,WindDirection,WindDirectionDegrees,WindSpeedMPH,WindSpeedGustMPH,Humidity,HourlyPrecipIn,Conditions,Clouds,dailyrainin,SoftwareType,DateUTC
2013-04-02 00:03:00,32.0,18.0,29.91,West,279,5.0,16.0,56,0.00,,,0.10,,2013-04-02 04:03:00,
2013-04-02 00:13:00,32.0,18.0,29.91,West,279,5.0,16.0,56,0.00,,,0.10,,2013-04-02 04:13:00,
2013-04-02 00:23:00,31.0,18.0,29.91,WNW,296,5.0,12.0,57,0.00,,,0.10,,2013-04-02 04:23:00,
2013-04-02 00:33:00,31.0,18.0,29.91,WSW,244,7.0,14.0,58,0.00,,,0.06,,2013-04-02 04:33:00,
2013-04-02 00:43:00,31.0,18.0,29.91,WSW,244,7.0,14.0,58,0.00,,,0.06,,2013-04-02 04:43:00,
2013-04-02 00:53:00,31.0,18.0,29.91,WSW,257,8.0,14.0,58,0.00,,,0.06,,2013-04-02 04:53:00,
2013-04-02 01:02:00,31.0,19.0,29.91,WSW,256,6.0,11.0,60,0.00,,,0.06,,2013-04-02 05:02:00,
2013-04-02 01:12:00,31.0,19.0,29.91,WSW,256,6.0,11.0,60,0.00,,,0.06,,2013-04-02 05:12:00,
2013-04-02 01:22:00,31.0,20.0,29.91,WNW,284,4.0,12.0,62,0.00,,,0.06,,2013-04-02 05:22:00,
2013-04-02 01:32:00,31.0,20.0,29.91,West,278,4.0,13.0,62,0.00,,,0.02,,2013-04-02 05:32:00,
2013-04-02 01:43:00,31.0,20.0,29.91,West,278,4.0,13.0,62,0.00,,,0.02,,2013-04-02 05:43:00,
2013-04-02 01:52:00,31.0,20.0,29.91,WNW,288,4.0,9.0,63,0.00,,,0.02,,2013-04-02 05:52:00,
2013-04-02 02:02:00,31.0,20.0,29.91,WNW,289,4.0,11.0,64,0.00,,,0.02,,2013-04-02 06:02:00,
2013-04-02 02:12:00,31.0,20.0,29.91,WNW,289,4.0,11.0,64,0.00,,,0.02,,2013-04-02 06:12:00,
2013-04-02 02:22:00,31.0,22.0,29.91,WNW,290,7.0,11.0,68,0.00,,,0.02,,2013-04-02 06:22:00,
2013-04-02 02:32:00,31.0,22.0,29.91,WNW,290,7.0,11.0,68,0.00,,,0.02,,2013-04-02 06:32:00,
2013-04-02 02:42:00,31.0,22.0,29.91,WNW,290,7.0,11.0,68,0.00,,,0.02,,2013-04-02 06:42:00,
2013-04-02 02:52:00,29.0,23.0,29.91,WSW,250,4.0,10.0,77,0.00,,,0.02,,2013-04-02 06:52:00,
2013-04-02 03:02:00,29.0,23.0,29.91,West,269,3.0,10.0,78,0.00,,,0.02,,2013-04-02 07:02:00,
2013-04-02 03:13:00,29.0,23.0,29.91,West,269,3.0,10.0,78,0.00,,,0.02,,2013-04-02 07:13:00,
2013-04-02 03:22:00,29.0,23.0,29.91,WNW,287,3.0,9.0,78,0.00,,,0.02,,2013-04-02 07:22:00,
2013-04-02 03:32:00,29.0,23.0,29.91,WNW,288,2.0,8.0,79,0.00,,,0.01,,2013-04-02 07:32:00,
2013-04-02 03:43:00,29.0,23.0,29.91,WNW,288,2.0,8.0,79,0.00,,,0.01,,2013-04-02 07:43:00,
2013-04-02 03:53:00,28.0,23.0,29.91,West,260,4.0,7.0,80,0.00,,,0.01,,2013-04-02 07:53:00,
2013-04-02 04:02:00,29.0,24.0,29.91,WSW,258,2.0,8.0,80,0.00,,,0.01,,2013-04-02 08:02:00,
2013-04-02 04:13:00,29.0,24.0,29.91,WSW,258,2.0,8.0,80,0.00,,,0.01,,2013-04-02 08:13:00,
2013-04-02 04:22:00,29.0,23.0,29.91,West,268,7.0,13.0,78,0.00,,,0.01,,2013-04-02 08:22:00,
2013-04-02 04:32:00,29.0,23.0,29.90,West,261,4.0,10.0,77,0.00,,,0.01,,2013-04-02 08:32:00,
2013-04-02 04:42:00,29.0,23.0,29.90,West,261,4.0,10.0,77,0.00,,,0.01,,2013-04-02 08:42:00,
2013-04-02 04:52:00,28.0,23.0,29.91,WNW,288,4.0,9.0,81,0.00,,,0.01,,2013-04-02 08:52:00,
2013-04-02 05:02:00,27.0,23.0,29.91,WNW,288,8.0,12.0,83,0.00,,,0.01,,2013-04-02 09:02:00,
2013-04-02 05:12:00,27.0,23.0,29.91,WNW,288,8.0,12.0,83,0.00,,,0.01,,2013-04-02 09:12:00,
2013-04-02 05:22:00,27.0,23.0,29.91,West,266,5.0,12.0,85,0.00,,,0.01,,2013-04-02 09:22:00,
2013-04-02 05:32:00,27.0,23.0,29.92,West,259,4.0,9.0,85,0.00,,,0.01,,2013-04-02 09:32:00,
2013-04-02 05:43:00,27.0,23.0,29.92,West,259,4.0,9.0,85,0.00,,,0.01,,2013-04-02 09:43:00,
2013-04-02 05:53:00,27.0,23.0,29.92,WNW,293,2.0,4.0,85,0.00,,,0.01,,2013-04-02 09:53:00,
2013-04-02 06:03:00,27.0,25.0,29.92,WNW,284,3.0,7.0,92,0.00,,,0.01,,2013-04-02 10:03:00,
2013-04-02 06:13:00,27.0,25.0,29.92,WNW,284,3.0,7.0,92,0.00,,,0.01,,2013-04-02 10:13:00,
2013-04-02 06:23:00,27.0,24.0,29.93,WNW,292,2.0,6.0,87,0.00,,,0.01,,2013-04-02 10:23:00,
2013-04-02 06:33:00,26.0,23.0,29.93,WNW,292,2.0,4.0,87,0.00,,,0.01,,2013-04-02 10:33:00,
2013-04-02 06:42:00,26.0,23.0,29.93,WNW,292,2.0,4.0,87,0.00,,,0.01,,2013-04-02 10:42:00,
2013-04-02 06:53:00,26.0,23.0,29.93,NW,306,3.0,6.0,87,0.00,,,0.01,,2013-04-02 10:53:00,
2013-04-02 07:02:00,26.0,23.0,29.94,NW,306,1.0,5.0,87,0.00,,,0.01,,2013-04-02 11:02:00,
2013-04-02 07:12:00,26.0,23.0,29.94,NW,306,1.0,5.0,87,0.00,,,0.01,,2013-04-02 11:12:00,
2013-04-02 07:22:00,27.0,24.0,29.94,WNW,286,3.0,6.0,87,0.00,,,0.01,,2013-04-02 11:22:00,
2013-04-02 07:33:00,27.0,23.0,29.95,West,265,3.0,12.0,86,0.00,,,0.01,,2013-04-02 11:33:00,
2013-04-02 07:43:00,27.0,23.0,29.95,West,265,3.0,12.0,86,0.00,,,0.01,,2013-04-02 11:43:00,
2013-04-02 07:53:00,27.0,23.0,29.95,WSW,254,3.0,11.0,83,0.00,,,0.01,,2013-04-02 11:53:00,
2013-04-02 08:02:00,27.0,22.0,29.96,WSW,252,5.0,11.0,81,0.00,,,0.01,,2013-04-02 12:02:00,
2013-04-02 08:12:00,27.0,22.0,29.96,WSW,252,5.0,11.0,81,0.00,,,0.01,,2013-04-02 12:12:00,
2013-04-02 08:23:00,28.0,22.0,29.95,West,265,5.0,10.0,77,0.00,,,0.01,,2013-04-02 12:23:00,
2013-04-02 08:32:00,28.0,21.0,29.96,West,264,12.0,18.0,75,0.00,,,0.01,,2013-04-02 12:32:00,
2013-04-02 08:42:00,28.0,21.0,29.96,West,264,12.0,18.0,75,0.00,,,0.01,,2013-04-02 12:42:00,
2013-04-02 08:53:00,27.0,22.0,29.97,WSW,254,6.0,15.0,81,0.00,,,0.01,,2013-04-02 12:53:00,
2013-04-02 09:02:00,27.0,23.0,29.97,WSW,249,4.0,11.0,83,0.00,,,0.01,,2013-04-02 13:02:00,
2013-04-02 09:12:00,29.0,22.0,29.97,WSW,252,9.0,14.0,75,0.00,,,0.01,,2013-04-02 13:12:00,
2013-04-02 09:22:00,29.0,22.0,29.97,WSW,252,9.0,14.0,75,0.00,,,0.01,,2013-04-02 13:22:00,
2013-04-02 09:33:00,30.0,22.0,29.96,WSW,249,5.0,15.0,73,0.00,,,0.01,,2013-04-02 13:33:00,
2013-04-02 09:42:00,30.0,22.0,29.96,WSW,249,5.0,15.0,73,0.00,,,0.01,,2013-04-02 13:42:00,
2013-04-02 09:52:00,30.0,20.0,29.97,West,259,9.0,19.0,67,0.01,,,0.02,,2013-04-02 13:52:00,
2013-04-02 10:02:00,30.0,20.0,29.97,WNW,286,9.0,19.0,65,0.01,,,0.02,,2013-04-02 14:02:00,
2013-04-02 10:12:00,30.0,20.0,29.97,WNW,286,9.0,19.0,65,0.01,,,0.02,,2013-04-02 14:12:00,
2013-04-02 10:23:00,31.0,20.0,29.97,West,273,9.0,19.0,62,0.01,,,0.02,,2013-04-02 14:23:00,
2013-04-02 10:32:00,31.0,20.0,29.97,WSW,254,6.0,24.0,62,0.01,,,0.02,,2013-04-02 14:32:00,
2013-04-02 10:42:00,31.0,20.0,29.97,WSW,254,6.0,24.0,62,0.01,,,0.02,,2013-04-02 14:42:00,
2013-04-02 10:52:00,32.0,19.0,29.97,West,269,9.0,24.0,58,0.00,,,0.02,,2013-04-02 14:52:00,
2013-04-02 11:02:00,32.0,19.0,29.97,WSW,242,13.0,23.0,57,0.00,,,0.02,,2013-04-02 15:02:00,
2013-04-02 11:12:00,32.0,19.0,29.97,WSW,242,13.0,23.0,57,0.00,,,0.02,,2013-04-02 15:12:00,
2013-04-02 11:23:00,32.0,17.0,29.96,WSW,237,10.0,24.0,54,0.00,,,0.02,,2013-04-02 15:23:00,
2013-04-02 11:33:00,33.0,17.0,29.96,WSW,252,13.0,36.0,51,0.00,,,0.02,,2013-04-02 15:33:00,
2013-04-02 11:43:00,33.0,17.0,29.96,WSW,252,13.0,36.0,51,0.00,,,0.02,,2013-04-02 15:43:00,
2013-04-02 11:58:00,33.0,15.0,29.97,WSW,258,15.0,31.0,48,0.00,,,0.02,,2013-04-02 15:58:00,
2013-04-02 12:04:00,33.0,16.0,29.96,WSW,249,13.0,29.0,49,0.00,,,0.02,,2013-04-02 16:04:00,
2013-04-02 12:13:00,33.0,16.0,29.96,WSW,249,13.0,29.0,49,0.00,,,0.02,,2013-04-02 16:13:00,
2013-04-02 12:24:00,34.0,17.0,29.96,West,265,7.0,29.0,50,0.00,,,0.02,,2013-04-02 16:24:00,
2013-04-02 12:37:00,34.0,17.0,29.96,WSW,240,12.0,39.0,50,0.00,,,0.01,,2013-04-02 16:37:00,
2013-04-02 12:44:00,34.0,17.0,29.96,WSW,240,12.0,39.0,50,0.00,,,0.01,,2013-04-02 16:44:00,
2013-04-02 12:53:00,34.0,17.0,29.96,WNW,293,12.0,37.0,49,0.00,,,0.01,,2013-04-02 16:53:00,
2013-04-02 13:05:00,34.0,17.0,29.95,WSW,245,15.0,29.0,49,0.00,,,0.01,,2013-04-02 17:05:00,
2013-04-02 13:13:00,34.0,17.0,29.95,WSW,245,15.0,29.0,49,0.00,,,0.01,,2013-04-02 17:13:00,
2013-04-02 13:25:00,34.0,16.0,29.95,SW,236,15.0,26.0,47,0.00,,,0.01,,2013-04-02 17:25:00,
2013-04-02 13:35:00,34.0,17.0,29.95,West,277,10.0,27.0,49,0.00,,,0.01,,2013-04-02 17:35:00,
2013-04-02 13:43:00,34.0,17.0,29.95,West,277,10.0,27.0,49,0.00,,,0.01,,2013-04-02 17:43:00,
2013-04-02 14:04:00,34.0,19.0,29.94,West,265,14.0,36.0,53,0.00,,,0.01,,2013-04-02 18:04:00,
2013-04-02 14:13:00,34.0,19.0,29.94,West,265,14.0,36.0,53,0.00,,,0.01,,2013-04-02 18:13:00,
2013-04-02 14:23:00,33.0,19.0,29.95,West,270,15.0,25.0,55,0.00,,,0.01,,2013-04-02 18:23:00,
2013-04-02 14:34:00,34.0,20.0,29.95,WNW,296,12.0,30.0,55,0.00,,,0.01,,2013-04-02 18:34:00,
2013-04-02 14:43:00,34.0,20.0,29.95,WNW,296,12.0,30.0,55,0.00,,,0.01,,2013-04-02 18:43:00,
2013-04-02 14:57:00,35.0,18.0,29.95,WNW,298,19.0,34.0,50,0.00,,,0.01,,2013-04-02 18:57:00,
2013-04-02 15:03:00,34.0,21.0,29.95,WSW,240,11.0,21.0,59,0.00,,,0.01,,2013-04-02 19:03:00,
2013-04-02 15:13:00,34.0,21.0,29.95,WSW,240,11.0,21.0,59,0.00,,,0.01,,2013-04-02 19:13:00,
2013-04-02 15:23:00,34.0,17.0,29.95,West,261,12.0,31.0,50,0.00,,,0.01,,2013-04-02 19:23:00,
2013-04-02 15:34:00,35.0,17.0,29.94,West,260,13.0,29.0,47,0.00,,,0.01,,2013-04-02 19:34:00,
2013-04-02 15:45:00,35.0,17.0,29.94,West,260,13.0,29.0,47,0.00,,,0.01,,2013-04-02 19:45:00,
2013-04-02 15:57:00,34.0,20.0,29.95,WSW,238,9.0,30.0,56,0.00,,,0.01,,2013-04-02 19:57:00,
2013-04-02 16:03:00,34.0,19.0,29.94,WSW,242,10.0,24.0,54,0.00,,,0.01,,2013-04-02 20:03:00,
2013-04-02 16:14:00,34.0,19.0,29.94,WSW,242,10.0,24.0,54,0.00,,,0.01,,2013-04-02 20:14:00,
2013-04-02 16:22:00,35.0,18.0,29.94,WNW,288,15.0,31.0,50,0.00,,,0.01,,2013-04-02 20:22:00,
2013-04-02 16:33:00,36.0,18.0,29.94,NW,312,14.0,28.0,47,0.00,,,0.01,,2013-04-02 20:33:00,
2013-04-02 16:44:00,36.0,18.0,29.94,NW,312,14.0,28.0,47,0.00,,,0.01,,2013-04-02 20:44:00,
2013-04-02 16:55:00,36.0,18.0,29.94,NW,312,14.0,28.0,47,0.00,,,0.01,,2013-04-02 20:55:00,
2013-04-02 17:04:00,33.0,20.0,29.96,West,273,11.0,22.0,59,0.00,,,0.01,,2013-04-02 21:04:00,
2013-04-02 17:13:00,33.0,20.0,29.96,West,273,11.0,22.0,59,0.00,,,0.01,,2013-04-02 21:13:00,
2013-04-02 17:23:00,34.0,19.0,29.96,WSW,240,10.0,27.0,54,0.00,,,0.01,,2013-04-02 21:23:00,
2013-04-02 17:35:00,34.0,19.0,29.96,West,279,9.0,17.0,53,0.00,,,0.01,,2013-04-02 21:35:00,
2013-04-02 17:44:00,34.0,19.0,29.96,West,279,9.0,17.0,53,0.00,,,0.01,,2013-04-02 21:44:00,
2013-04-02 17:56:00,34.0,20.0,29.97,WNW,292,11.0,22.0,55,0.00,,,0.01,,2013-04-02 21:56:00,
2013-04-02 18:04:00,34.0,20.0,29.97,WNW,292,11.0,22.0,55,0.00,,,0.01,,2013-04-02 22:04:00,
2013-04-02 18:14:00,34.0,20.0,29.97,WNW,292,11.0,22.0,55,0.00,,,0.01,,2013-04-02 22:14:00,
2013-04-02 18:24:00,34.0,20.0,29.98,WNW,298,9.0,18.0,56,0.00,,,0.01,,2013-04-02 22:24:00,
2013-04-02 18:33:00,34.0,21.0,29.98,West,269,4.0,15.0,58,0.00,,,0.01,,2013-04-02 22:33:00,
2013-04-02 18:44:00,34.0,21.0,29.98,West,269,4.0,15.0,58,0.00,,,0.01,,2013-04-02 22:44:00,
2013-04-02 18:54:00,34.0,19.0,29.98,West,271,8.0,20.0,53,0.00,,,0.01,,2013-04-02 22:54:00,
2013-04-02 19:03:00,34.0,18.0,29.98,WSW,254,7.0,22.0,52,0.00,,,0.01,,2013-04-02 23:03:00,
2013-04-02 19:13:00,34.0,18.0,29.98,WSW,254,7.0,22.0,52,0.00,,,0.01,,2013-04-02 23:13:00,
2013-04-02 19:23:00,34.0,18.0,29.99,WNW,299,9.0,19.0,52,0.00,,,0.01,,2013-04-02 23:23:00,
2013-04-02 19:35:00,34.0,19.0,29.99,WNW,284,11.0,22.0,53,0.00,,,0.01,,2013-04-02 23:35:00,
2013-04-02 19:43:00,34.0,19.0,29.99,WNW,284,11.0,22.0,53,0.00,,,0.01,,2013-04-02 23:43:00,
2013-04-02 19:54:00,33.0,19.0,30.00,WNW,295,6.0,23.0,57,0.00,,,0.01,,2013-04-02 23:54:00,
2013-04-02 20:04:00,33.0,20.0,30.01,WNW,284,8.0,18.0,59,0.00,,,0.01,,2013-04-03 00:04:00,
2013-04-02 20:13:00,33.0,20.0,30.01,WNW,284,8.0,18.0,59,0.00,,,0.01,,2013-04-03 00:13:00,
2013-04-02 20:25:00,33.0,21.0,30.01,WNW,284,4.0,16.0,62,0.00,,,0.01,,2013-04-03 00:25:00,
2013-04-02 20:34:00,33.0,21.0,30.02,WSW,249,9.0,19.0,62,0.00,,,0.01,,2013-04-03 00:34:00,
2013-04-02 20:47:00,33.0,21.0,30.02,WSW,249,9.0,19.0,62,0.00,,,0.01,,2013-04-03 00:47:00,
2013-04-02 20:57:00,32.0,22.0,30.02,West,263,10.0,29.0,65,0.00,,,0.01,,2013-04-03 00:57:00,
2013-04-02 21:04:00,32.0,23.0,30.03,West,279,6.0,18.0,68,0.00,,,0.01,,2013-04-03 01:04:00,
2013-04-02 21:13:00,32.0,23.0,30.03,West,279,6.0,18.0,68,0.00,,,0.01,,2013-04-03 01:13:00,
2013-04-02 21:23:00,31.0,23.0,30.03,WNW,293,7.0,17.0,72,0.00,,,0.01,,2013-04-03 01:23:00,
2013-04-02 21:33:00,32.0,23.0,30.04,WSW,246,10.0,27.0,69,0.00,,,0.01,,2013-04-03 01:33:00,
2013-04-02 21:42:00,32.0,23.0,30.04,WSW,246,10.0,27.0,69,0.00,,,0.01,,2013-04-03 01:42:00,
2013-04-02 21:54:00,32.0,22.0,30.04,WSW,245,9.0,19.0,67,0.00,,,0.01,,2013-04-03 01:54:00,
2013-04-02 22:03:00,32.0,23.0,30.04,WSW,257,8.0,25.0,68,0.00,,,0.01,,2013-04-03 02:03:00,
2013-04-02 22:13:00,32.0,23.0,30.04,WSW,257,8.0,25.0,68,0.00,,,0.01,,2013-04-03 02:13:00,
2013-04-02 22:24:00,32.0,25.0,30.05,West,271,10.0,19.0,74,0.00,,,0.01,,2013-04-03 02:24:00,
2013-04-02 22:34:00,30.0,25.0,30.05,WSW,244,8.0,17.0,82,0.00,,,0.01,,2013-04-03 02:34:00,
2013-04-02 22:44:00,30.0,25.0,30.05,WSW,244,8.0,17.0,82,0.00,,,0.01,,2013-04-03 02:44:00,
2013-04-02 22:53:00,30.0,24.0,30.04,West,263,8.0,19.0,79,0.00,,,0.01,,2013-04-03 02:53:00,
2013-04-02 23:05:00,31.0,24.0,30.04,WSW,248,7.0,17.0,75,0.00,,,0.01,,2013-04-03 03:05:00,
2013-04-02 23:23:00,32.0,24.0,30.04,NNW,336,6.0,19.0,71,0.00,,,0.01,,2013-04-03 03:23:00,
2013-04-02 23:37:00,31.0,23.0,30.04,WSW,246,6.0,20.0,72,0.00,,,0.01,,2013-04-03 03:37:00,
2013-04-02 23:44:00,31.0,23.0,30.04,WSW,246,6.0,20.0,72,0.00,,,0.01,,2013-04-03 03:44:00,
2013-04-02 23:54:00,31.0,23.0,30.04,WNW,296,5.0,11.0,71,0.00,,,0.01,,2013-04-03 03:54:00,